Change the Weather History Date:

Thursday, June 27, 2013

  Actual Average (KBWI) Record (KBWI)
Temperature  
Mean Temperature 73 °F 76 °F  
Max Temperature 82 °F 86 °F 100 °F (2010)
Min Temperature 64 °F 65 °F 50 °F (1979)
Degree Days  
Heating Degree Days 0 0  
Month to date heating degree days 13  
Since 1 June heating degree days 13  
Since 1 July heating degree days 4762  
Cooling Degree Days 8 11  
Month to date cooling degree days 206  
Year to date cooling degree days 290  
Since 1 June cooling degree days 206  
Growing Degree Days 23 (Base 50)    
Moisture  
Dew Point 68 °F    
Average Humidity 87    
Maximum Humidity 100    
Minimum Humidity 70    
Precipitation  
Precipitation 0.00 in 0.11 in 2.04 in (1883)
Month to date precipitation 3.12  
Year to date precipitation 20.15  
Snow  
Snow 0.00 in 0.00 in - ()
Month to date snowfall 0.0  
Since 1 July snowfall 20.1  
Snow Depth -    
Sea Level Pressure  
Sea Level Pressure 29.75 in    
Wind  
Wind Speed 3 mph (South)    
Max Wind Speed 15 mph    
Max Gust Speed 22 mph    
Visibility 7 miles    
Events      
T = Trace of Precipitation, MM = Missing Value Source: NWS Daily Summary

Daily Weather History Graph

Daily Weather History Graph

Search for Another Location

Airport or City:

Trip Planner

Search our weather history database for the weather conditions in past years. The results will help you decide how hot, cold, wet, or windy it might be!

Date:

Astronomy

Jun. 27, 2013 Rise Set
Actual Time 5:43 AM EDT 8:37 PM EDT
Civil Twilight 5:11 AM EDT 9:09 PM EDT
Nautical Twilight 4:30 AM EDT 9:49 PM EDT
Astronomical Twilight 3:43 AM EDT 10:36 PM EDT
Moon 11:35 PM EDT (6/27) 10:39 AM EDT (6/27)
Length of Visible Light 15h 58m
Length of Day
14h 53m
Waning Gibbous, 76% of the Moon is Illuminated
Jun 27
Waning Gibbous
Jun 30
Last Quarter
Jul 8
New
Jul 15
First Quarter
Jul 22
Full

Hourly Weather History & Observations

Time (EDT) Temp. Heat Index Dew Point Humidity Pressure Visibility Wind Dir Wind Speed Gust Speed Precip Events Conditions
12:06 AM 69.8 °F - 68.0 °F 94% 29.86 in 2.5 mi Calm Calm - N/A   Clear
12:27 AM 69.8 °F - 68.0 °F 94% 29.86 in 2.5 mi South 3.5 mph - N/A   Clear
12:48 AM 68.0 °F - 68.0 °F 100% 29.86 in 2.5 mi Calm Calm - N/A   Clear
1:06 AM 68.0 °F - 66.2 °F 94% 29.85 in 2.0 mi Calm Calm - N/A   Clear
1:27 AM 68.0 °F - 66.2 °F 94% 29.85 in 1.5 mi Calm Calm - N/A   Unknown
1:48 AM 68.0 °F - 66.2 °F 94% 29.84 in 2.5 mi Calm Calm - N/A   Clear
2:09 AM 68.0 °F - 66.2 °F 94% 29.84 in 2.5 mi Calm Calm - N/A   Clear
2:27 AM 68.0 °F - 66.2 °F 94% 29.83 in 3.0 mi Calm Calm - N/A   Clear
2:48 AM 68.0 °F - 64.4 °F 88% 29.83 in 3.0 mi Calm Calm - N/A   Clear
3:09 AM 68.0 °F - 66.2 °F 94% 29.83 in 3.0 mi Calm Calm - N/A   Clear
3:27 AM 68.0 °F - 64.4 °F 88% 29.83 in 2.5 mi Calm Calm - N/A   Clear
3:48 AM 68.0 °F - 64.4 °F 88% 29.82 in 3.0 mi Calm Calm - N/A   Clear
4:09 AM 66.2 °F - 64.4 °F 94% 29.82 in 2.5 mi Calm Calm - N/A   Clear
4:27 AM 66.2 °F - 64.4 °F 94% 29.82 in 2.5 mi Calm Calm - N/A   Clear
4:48 AM 66.2 °F - 64.4 °F 94% 29.82 in 3.0 mi Calm Calm - N/A   Clear
5:09 AM 66.2 °F - 64.4 °F 94% 29.82 in 3.0 mi Calm Calm - N/A   Clear
5:27 AM 64.4 °F - 64.4 °F 100% 29.83 in 3.0 mi Calm Calm - N/A   Clear
5:48 AM 64.4 °F - 64.4 °F 100% 29.84 in 2.5 mi Calm Calm - N/A   Clear
6:09 AM 66.2 °F - 64.4 °F 94% 29.84 in 2.5 mi Calm Calm - N/A   Clear
6:27 AM 66.2 °F - 64.4 °F 94% 29.83 in 3.0 mi Calm Calm - N/A   Clear
6:48 AM 68.0 °F - 66.2 °F 94% 29.83 in 4.0 mi Calm Calm - N/A   Clear
7:09 AM 68.0 °F - 68.0 °F 100% 29.83 in 5.0 mi Calm Calm - N/A   Scattered Clouds
7:27 AM 69.8 °F - 68.0 °F 94% 29.83 in 5.0 mi Calm Calm - N/A   Mostly Cloudy
7:48 AM 69.8 °F - 68.0 °F 94% 29.82 in 4.0 mi Calm Calm - N/A   Overcast
8:09 AM 69.8 °F - 68.0 °F 94% 29.82 in 4.0 mi Calm Calm - N/A   Overcast
8:27 AM 69.8 °F - 68.0 °F 94% 29.81 in 4.0 mi Calm Calm - N/A   Overcast
8:48 AM 69.8 °F - 68.0 °F 94% 29.81 in 4.0 mi Calm Calm - N/A   Overcast
9:09 AM 71.6 °F - 68.0 °F 88% 29.81 in 7.0 mi Calm Calm - N/A   Mostly Cloudy
9:27 AM 71.6 °F - 68.0 °F 88% 29.81 in 10.0 mi SSE 4.6 mph - N/A   Scattered Clouds
9:48 AM 73.4 °F - 69.8 °F 88% 29.80 in 10.0 mi SSE 5.8 mph - N/A   Mostly Cloudy
10:09 AM 75.2 °F - 69.8 °F 83% 29.79 in 10.0 mi SSE 5.8 mph - N/A   Scattered Clouds
10:27 AM 77.0 °F - 69.8 °F 78% 29.79 in 10.0 mi SSE 6.9 mph - N/A   Scattered Clouds
10:48 AM 77.0 °F - 69.8 °F 78% 29.78 in 10.0 mi SE 5.8 mph - N/A   Scattered Clouds
11:09 AM 78.8 °F - 69.8 °F 74% 29.77 in 10.0 mi SE 4.6 mph - N/A   Scattered Clouds
11:30 AM 80.6 °F 83.9 °F 69.8 °F 70% 29.76 in 10.0 mi SSE 6.9 mph - N/A   Clear
11:48 AM 80.6 °F 84.6 °F 71.6 °F 74% 29.75 in 10.0 mi SE 6.9 mph - N/A   Scattered Clouds
12:09 PM 82.4 °F 87.2 °F 71.6 °F 70% 29.75 in 10.0 mi SSE 4.6 mph - N/A   Scattered Clouds
12:30 PM 80.6 °F 84.6 °F 71.6 °F 74% 29.74 in 10.0 mi South 5.8 mph - N/A   Scattered Clouds
12:48 PM 82.4 °F 87.2 °F 71.6 °F 70% 29.72 in 10.0 mi SSE 5.8 mph - N/A   Scattered Clouds
1:09 PM 80.6 °F 84.6 °F 71.6 °F 74% 29.72 in 10.0 mi SE 8.1 mph - N/A   Scattered Clouds
1:30 PM 80.6 °F 84.6 °F 71.6 °F 74% 29.72 in 10.0 mi ESE 9.2 mph - N/A   Overcast
1:48 PM 80.6 °F 84.6 °F 71.6 °F 74% 29.70 in 10.0 mi SE 6.9 mph - N/A   Mostly Cloudy
2:09 PM 82.4 °F 87.2 °F 71.6 °F 70% 29.69 in 10.0 mi SE 11.5 mph - N/A   Mostly Cloudy
2:30 PM 78.8 °F - 71.6 °F 78% 29.69 in 10.0 mi SE 9.2 mph 16.1 mph N/A   Overcast
2:48 PM 78.8 °F - 71.6 °F 78% 29.68 in 10.0 mi South 10.4 mph - N/A   Overcast
3:09 PM 80.6 °F 83.9 °F 69.8 °F 70% 29.68 in 10.0 mi SSW 15.0 mph 21.9 mph N/A   Overcast
3:30 PM 77.0 °F - 69.8 °F 78% 29.68 in 10.0 mi SSW 11.5 mph - N/A   Mostly Cloudy
3:48 PM 75.2 °F - 69.8 °F 83% 29.68 in 10.0 mi SSW 13.8 mph 18.4 mph N/A   Overcast
4:09 PM 73.4 °F - 69.8 °F 88% 29.67 in 4.0 mi SW 10.4 mph - N/A   Overcast
4:30 PM 71.6 °F - 69.8 °F 94% 29.66 in 3.0 mi SW 9.2 mph - N/A   Overcast
4:48 PM 71.6 °F - 69.8 °F 94% 29.65 in 7.0 mi SW 6.9 mph - N/A   Overcast
5:09 PM 73.4 °F - 69.8 °F 88% 29.65 in 10.0 mi SW 9.2 mph - N/A   Overcast
5:30 PM 73.4 °F - 69.8 °F 88% 29.63 in 10.0 mi SW 8.1 mph - N/A   Mostly Cloudy
5:48 PM 75.2 °F - 69.8 °F 83% 29.64 in 10.0 mi SW 10.4 mph - N/A   Scattered Clouds
6:09 PM 75.2 °F - 69.8 °F 83% 29.65 in 10.0 mi SSW 6.9 mph - N/A   Mostly Cloudy
6:30 PM 77.0 °F - 69.8 °F 78% 29.65 in 10.0 mi SW 8.1 mph - N/A   Scattered Clouds
6:48 PM 77.0 °F - 69.8 °F 78% 29.65 in 10.0 mi SW 5.8 mph - N/A   Clear
7:09 PM 77.0 °F - 69.8 °F 78% 29.66 in 10.0 mi SW 5.8 mph - N/A   Scattered Clouds
7:30 PM 75.2 °F - 69.8 °F 83% 29.65 in 10.0 mi SSW 6.9 mph - N/A   Scattered Clouds
7:51 PM 75.2 °F - 69.8 °F 83% 29.66 in 10.0 mi SSW 6.9 mph - N/A   Scattered Clouds
8:09 PM 73.4 °F - 69.8 °F 88% 29.66 in 10.0 mi SSW 4.6 mph - N/A   Scattered Clouds
8:30 PM 73.4 °F - 69.8 °F 88% 29.66 in 10.0 mi SSW 4.6 mph - N/A   Clear
8:51 PM 73.4 °F - 69.8 °F 88% 29.66 in 10.0 mi SSW 3.5 mph - N/A   Clear
9:09 PM 71.6 °F - 69.8 °F 94% 29.67 in 10.0 mi SW 3.5 mph - N/A   Scattered Clouds
9:30 PM 73.4 °F - 69.8 °F 88% 29.67 in 10.0 mi SSW 5.8 mph - N/A   Mostly Cloudy
9:51 PM 71.6 °F - 69.8 °F 94% 29.68 in 10.0 mi SW 8.1 mph 16.1 mph N/A   Overcast
10:09 PM 73.4 °F - 68.0 °F 83% 29.68 in 10.0 mi SSW 5.8 mph - N/A   Mostly Cloudy
10:30 PM 73.4 °F - 68.0 °F 83% 29.68 in 10.0 mi SSW 3.5 mph - N/A   Mostly Cloudy
10:51 PM 71.6 °F - 68.0 °F 88% 29.67 in 10.0 mi SW 3.5 mph - N/A   Mostly Cloudy
11:09 PM 71.6 °F - 68.0 °F 88% 29.67 in 10.0 mi SW 8.1 mph - N/A   Overcast
11:30 PM 71.6 °F - 68.0 °F 88% 29.67 in 10.0 mi SW 4.6 mph - N/A   Scattered Clouds
11:51 PM 69.8 °F - 68.0 °F 94% 29.66 in 10.0 mi SW 3.5 mph - N/A   Mostly Cloudy